Weather Roundup
Issued by NWS

Home | Current Version | Previous Version | Graphics & Text | Print | Product List | Glossary Off
Versions: 1 2 3 4 5 6 7 8 9 10 11 12 13 14 15 16 17 18 19 20 21 22 23 24 25 26 27 28 29 30 31 32 33 34 35 36 37 38 39 40 41 42 43 44 45 46 47 48 49 50

000
NZUS93 KARX 040859
HRRWXR

CURRENT HOURLY OBSERVATIONS ACROSS
MUCH OF THE UPPER MISSISSIPPI VALLEY
NATIONAL WEATHER SERVICE LA CROSSE WI
400 AM CDT FRI SEP 04 2015


...SOUTHEAST MINNESOTA...


CITY           SKY/WX    TMP DP  RH WIND       PRES   REMARKS
ROCHESTER      CLOUDY    72  72 100 SE8       29.96R FOG
ROCHESTER/MAYO PTSUNNY   72  73 100 E13       29.95S
WINONA         CLEAR     70  64  83 SE6       29.97R
AUSTIN         CLEAR     72  70  94 SE3       29.94R
ALBERT LEA     CLEAR     72  72 100 SE6       29.93R
DODGE CENTER   CLEAR     72  72 100 SE7       29.94S FOG
PRESTON        CLOUDY    73  71  94 SE7       29.98R FOG
OWATONNA       CLEAR     73  70  88 SE8       29.92S
FARIBAULT      CLEAR     73  72  94 SE5       29.92R
$$

...ELSEWHERE IN MINNESOTA...


CITY           SKY/WX    TMP DP  RH WIND       PRES   REMARKS
MINNEAPOLIS    CLEAR     72  68  87 SE13      29.91S
INTNL FALLS    PTCLDY    56  53  90 SE6       29.94S
DULUTH         CLEAR     56  54  93 E5        30.00S
RED WING       CLEAR     72  66  83 SE12      29.93R
REDWOOD FALLS  PTCLDY    74  71  91 SE8       29.84S
MANKATO        CLEAR     73  72  94 SE10      29.89S
WORTHINGTON    PTCLDY    72  66  83 S10       29.87S
FAIRMONT       PTCLDY    72  64  78 S8        29.89R
$$

...SOUTHWEST WISCONSIN...


CITY           SKY/WX    TMP DP  RH WIND       PRES   REMARKS
LA CROSSE      MOCLDY    70  66  87 SE6       29.97S
PRAIRIE DU CHI PTCLDY    71  66  83 E3        29.96S
BOSCOBEL       CLEAR     69  67  93 CALM      29.98R
LONE ROCK      NOT AVBL
PLATTEVILLE    CLEAR     69  69  98 E9        29.98R
FORT MC COY    CLOUDY    69  64  83 CALM      30.00R
VIROQUA          N/A     67  67 100 E8        30.00S
WIS DELLS      CLOUDY    69  65  86 NE5       30.00S
$$

...ELSEWHERE IN WISCONSIN...


CITY           SKY/WX    TMP DP  RH WIND       PRES   REMARKS
MILWAUKEE      MOCLDY    68  64  87 NW3       29.98R
MADISON        CLOUDY    71  66  84 CALM      29.99S
GREEN BAY      CLOUDY    67  65  93 NE6       30.00R
EAU CLAIRE     CLOUDY    70  64  81 E7        29.98R
BLACK RVR FLS  CLOUDY    71  64  80 E3        29.99R
MEDFORD        CLEAR     61  61  99 E3        30.03S
WAUSAU         CLEAR     61  60  97 CALM      30.02S FOG
WIS RAPIDS     PTCLDY    65  62  90 CALM      30.02S
MARSHFIELD     PTCLDY    64  61  90 E5        30.02S
RICE LAKE      CLOUDY    68  64  87 SE5       30.01R
$$

...NORTHEAST IOWA...


CITY           SKY/WX    TMP DP  RH WIND       PRES   REMARKS
DECORAH        CLOUDY    72  72 100 VRB6      29.96R FOG
MASON CITY     PTCLDY    69  68  96 S5        29.95R
CHARLES CITY   CLEAR     72  72 100 E6        29.95S
OELWEIN        CLEAR     70  70 100 CALM      29.96S
$$

...ELSEWHERE IN IOWA...


CITY           SKY/WX    TMP DP  RH WIND       PRES   REMARKS
DES MOINES     PTCLDY    73  67  81 S7        29.92S
IOWA CITY      MOCLDY    72  70  93 CALM      29.95R
FORT DODGE     CLEAR     73  66  78 S7        29.92S
$$

...NORTHERN ILLINOIS...


CITY           SKY/WX    TMP DP  RH WIND       PRES   REMARKS
CHICAGO-OHARE  CLEAR     69  66  90 N5        29.97S
CHICAGO-MIDWAY CLEAR     73  66  78 N3        29.96S
MOLINE         CLEAR     71  67  87 CALM      29.95R
ROCKFORD       CLEAR     69  65  86 E3        30.00R
PEORIA         CLEAR     74  68  81 CALM      29.96S
$$

NOTE: "FAIR" INDICATES FEW OR NO CLOUDS BELOW 12,000 FEET WITH NO
SIGNIFICANT WEATHER AND/OR OBSTRUCTIONS TO VISIBILITY. WIND
SPEEDS ARE IN MILES-PER-HOUR.



USA.gov is the U.S. government's official web portal to all federal, state and local government web resources and services.